User: anonymous   Login
Location: Maiden
(35.5760°N, 81.2120°W)
Time: 02:40:27
(UTC-04:00)
Language:

Cosmos 2151 - Orbit

View from above orbital plane
View from above orbital plane
View from above satellite
View from above satellite

Ground track
Ground track

The orbit data is extracted from the following two-line orbital elements,

1 21422U 91042A   16124.88929363  .00000529  00000-0  50146-4 0  9995
2 21422  82.4992 275.8661 0013448 215.9856 144.0459 14.91608612347489
Epoch (UTC): 03 May 2016 21:20:34
Eccentricity: 0.0013448
inclination: 82.4992°
perigee height: 583 km
apogee height: 602 km
right ascension of ascending node: 275.8661°
argument of perigee: 215.9856°
revolutions per day: 14.91608612
mean anomaly at epoch: 144.0459°
orbit number at epoch: 34748

The dashed part of the orbit path shows where the satellite is in the earth's shadow,  

DLR